Regional Weather Roundup
Issued by NWS

Home | Current Version | Previous Version | Text Only | Print | Product List | Glossary On
Versions: 1 2 3 4 5 6 7 8 9 10 11 12 13 14 15 16 17 18 19 20 21 22 23 24 25 26 27 28 29 30 31 32 33 34 35 36 37 38 39 40 41 42 43 44 45 46 47 48 49 50
000
ASUS44 KJAN 110110
RWRMS

MISSISSIPPI HOURLY WEATHER ROUNDUP
NATIONAL WEATHER SERVICE JACKSON MS
700 PM CST WED FEB 10 2016

NOTE: "FAIR: INDICATES FEW OR NO CLOUDS BELOW 12,000 FEET WITH NO
SIGNIFICANT WEATHER AND/OR OBSTRUCTIONS TO VISIBILITY.

MSZ001>002-007>008-010>013-018>021-025>028-034>036-110200-
NORTHWEST MISSISSIPPI

CITY           SKY/WX    TMP DP  RH WIND       PRES   REMARKS
CLEVELAND      FAIR      43  30  59 S9        30.11F
GREENWOOD      CLEAR     38  24  57 S6        30.14F WCI  33
GREENVILLE     CLEAR     40  28  62 S9        30.12F WCI  34
OLIVE BRANCH   CLEAR     28  19  69 CALM      30.12F
OXFORD         FAIR      32  16  51 CALM      30.16S
TUNICA         CLEAR     34  25  69 SE7       30.13F WCI  28
$$

MSZ003>006-009-014>017-022>024-029>033-037>039-110200-
NORTHEAST MISSISSIPPI

CITY           SKY/WX    TMP DP  RH WIND       PRES   REMARKS
COLUMBUS AFB   CLEAR     35  25  65 CALM      30.16R
CORINTH        FAIR      32   9  37 CALM      30.16R
GOLDN TRIANGLE CLEAR     41  18  38 CALM      30.16R SMOKE
STARKVILLE     FAIR      36  23  60 CALM      30.17R
TUPELO         CLEAR     37  14  38 CALM      30.16S
$$

MSZ040-058-110200-
CENTRAL MISSISSIPPI

CITY           SKY/WX    TMP DP  RH WIND       PRES   REMARKS
JACKSON INTL   CLEAR     43  26  51 S5        30.16F
JACKSON HAWKNS CLEAR     47  24  40 CALM      30.17F
MERIDIAN KEY   CLEAR     39  27  62 S6        30.18S WCI  35
MERIDIAN NAS   CLEAR     43  22  43 SW3       30.17F
VICKSBURG      CLEAR     50  28  42 S5        30.18F
$$

MSZ059>079-110200-
SOUTH MISSISSIPPI

CITY           SKY/WX    TMP DP  RH WIND       PRES   REMARKS
BROOKHAVEN     FAIR      50  30  46 SW3       30.21S
HATTIESBURG    CLEAR     45  29  53 CALM      30.22S
MCCOMB         CLEAR     50  30  46 SW6       30.22R
NATCHEZ        CLEAR     48  25  40 S6        30.21S
PINE BELT      CLEAR     41  28  60 SW3       30.21S
$$

MSZ080>082-110200-
COASTAL MISSISSIPPI

CITY           SKY/WX    TMP DP  RH WIND       PRES   REMARKS
BAY ST LOUIS   CLEAR     43  27  52 SW5       30.26S
BILOXI         CLEAR     50  33  52 W9        30.24S
PASCAGOULA     CLEAR     47  34  60 SW5       30.25F
GULFPORT       CLEAR     49  27  42 VRB3      30.24F
$$



USA.gov is the U.S. government's official web portal to all federal, state and local government web resources and services.